Weather History for Pensacola, FL

Change the Weather History Date:

Thursday, December 6, 2012

  Actual Average Record
Temperature  
Mean Temperature 66 °F 55 °F  
Max Temperature 74 °F 65 °F 80 °F (2013)
Min Temperature 57 °F 46 °F 26 °F (1937)
Degree Days  
Heating Degree Days 0 10  
Month to date heating degree days 1 58  
Since 1 July heating degree days 213 270  
Cooling Degree Days 1 1  
Month to date cooling degree days 8 6  
Year to date cooling degree days 3037 2602  
Growing Degree Days 15 (Base 50)    
Moisture  
Dew Point 59 °F    
Average Humidity 79    
Maximum Humidity 97    
Minimum Humidity 61    
Precipitation  
Precipitation 0.00 in 0.16 in 2.18 in (1953)
Month to date precipitation 0.00 0.95  
Year to date precipitation 64.54 61.67  
Snow  
Snow 0.00 in 0.00 in 0.00 in (2002)
Month to date snowfall 0.0 0.0  
Since 1 July snowfall 0.0 0.0  
Snow Depth 0.00 in    
Sea Level Pressure  
Sea Level Pressure 30.01 in    
Wind  
Wind Speed 6 mph (East)    
Max Wind Speed 13 mph    
Max Gust Speed 17 mph    
Visibility 10 miles    
Events      
T = Trace of Precipitation, MM = Missing Value Source: NWS Daily Summary

Daily Weather History Graph

Daily Weather History Graph

Search for Another Location

Airport:

Trip Planner

Search our weather history database for the weather conditions in past years. The results will help you decide how hot, cold, wet, or windy it might be!

Date:

Astronomy

Dec. 06, 2012 Rise Set
Actual Time 6:32 AM CST 4:47 PM CST
Civil Twilight 6:05 AM CST 5:14 PM CST
Nautical Twilight 5:36 AM CST 5:43 PM CST
Astronomical Twilight 5:06 AM CST 6:13 PM CST
Moon No Moon Rise 11:48 AM CST (12/6)
Length of Visible Light 11h 08m
Length of Day
10h 15m
Waning Gibbous, 49% of the Moon is Illuminated
Dec 6
Waning Gibbous
Dec 13
New
Dec 19
First Quarter
Dec 28
Full
Jan 4
Last Quarter

Hourly Weather History & Observations

Time (CST) Temp. Dew Point Humidity Pressure Visibility Wind Dir Wind Speed Gust Speed Precip Events Conditions
12:53 AM 60.1 °F 57.9 °F 93% 30.05 in 10.0 mi NE 3.5 mph - N/A   Clear
1:53 AM 60.1 °F 57.0 °F 90% 30.04 in 10.0 mi NE 5.8 mph - N/A   Clear
2:53 AM 60.1 °F 57.0 °F 90% 30.03 in 10.0 mi ENE 5.8 mph - N/A   Clear
3:53 AM 59.0 °F 55.9 °F 90% 30.02 in 10.0 mi NE 5.8 mph - N/A   Clear
4:53 AM 57.9 °F 55.9 °F 93% 30.02 in 10.0 mi NE 5.8 mph - N/A   Clear
5:53 AM 59.0 °F 55.0 °F 87% 30.04 in 10.0 mi NE 5.8 mph - N/A   Clear
6:53 AM 59.0 °F 55.0 °F 87% 30.04 in 10.0 mi ENE 5.8 mph - N/A   Clear
7:53 AM 61.0 °F 55.0 °F 81% 30.06 in 10.0 mi NE 4.6 mph - N/A   Scattered Clouds
8:53 AM 64.9 °F 55.9 °F 73% 30.06 in 10.0 mi East 4.6 mph - N/A   Partly Cloudy
9:53 AM 69.1 °F 59.0 °F 70% 30.06 in 10.0 mi ESE 5.8 mph - N/A   Clear
10:53 AM 72.0 °F 59.0 °F 64% 30.04 in 10.0 mi Variable 6.9 mph - N/A   Clear
11:53 AM 73.9 °F 59.0 °F 59% 30.02 in 10.0 mi SE 10.4 mph - N/A   Clear
12:53 PM 73.0 °F 59.0 °F 61% 30.00 in 10.0 mi SE 9.2 mph - N/A   Clear
1:53 PM 72.0 °F 59.0 °F 64% 29.99 in 10.0 mi SE 10.4 mph - N/A   Clear
2:53 PM 71.1 °F 61.0 °F 70% 29.98 in 10.0 mi SE 8.1 mph - N/A   Clear
3:53 PM 70.0 °F 61.0 °F 73% 29.98 in 10.0 mi SE 6.9 mph - N/A   Clear
4:53 PM 64.9 °F 61.0 °F 87% 29.98 in 10.0 mi ESE 4.6 mph - N/A   Clear
5:53 PM 64.9 °F 62.1 °F 90% 29.99 in 10.0 mi Calm Calm - N/A   Clear
6:53 PM 63.0 °F 61.0 °F 93% 29.99 in 10.0 mi East 3.5 mph - N/A   Clear
7:53 PM 64.0 °F 62.1 °F 93% 30.00 in 10.0 mi ESE 5.8 mph - N/A   Partly Cloudy
8:53 PM 64.0 °F 62.1 °F 93% 30.00 in 10.0 mi ENE 4.6 mph - N/A   Scattered Clouds
9:53 PM 63.0 °F 61.0 °F 93% 30.00 in 10.0 mi ENE 4.6 mph - N/A   Partly Cloudy
10:53 PM 63.0 °F 60.1 °F 90% 29.99 in 10.0 mi NE 4.6 mph - N/A   Partly Cloudy
11:53 PM 62.1 °F 60.1 °F 93% 29.98 in 10.0 mi ENE 5.8 mph - N/A   Clear